TimeCDT,TemperatureF,Dew PointF,Humidity,Sea Level PressureIn,VisibilityMPH,Wind Direction,Wind SpeedMPH,Gust SpeedMPH,PrecipitationIn,Events,Conditions,WindDirDegrees,DateUTC
12:57 AM,73.9,64.0,71,29.80,10.0,South,17.3,26.5,N/A,,Clear,170,2013-05-28 05:57:00
1:57 AM,73.0,64.0,73,29.78,10.0,South,16.1,-,0.01,,Clear,180,2013-05-28 06:57:00
2:57 AM,73.0,64.0,73,29.78,10.0,South,17.3,21.9,N/A,,Clear,180,2013-05-28 07:57:00
3:57 AM,73.0,64.0,73,29.77,10.0,South,17.3,-,N/A,,Clear,180,2013-05-28 08:57:00
4:57 AM,72.0,64.0,76,29.80,10.0,South,16.1,24.2,N/A,,Clear,190,2013-05-28 09:57:00
5:57 AM,73.0,64.9,76,29.82,10.0,South,18.4,24.2,N/A,,Clear,190,2013-05-28 10:57:00
6:57 AM,72.0,64.9,78,29.83,10.0,SSW,13.8,23.0,N/A,,Clear,200,2013-05-28 11:57:00
7:57 AM,73.0,64.9,76,29.83,10.0,South,13.8,20.7,N/A,,Clear,180,2013-05-28 12:57:00
8:57 AM,75.0,64.9,71,29.85,10.0,South,19.6,26.5,N/A,,Clear,180,2013-05-28 13:57:00
9:57 AM,77.0,61.0,58,29.85,10.0,South,19.6,29.9,N/A,,Clear,190,2013-05-28 14:57:00
10:57 AM,75.9,60.1,58,29.86,10.0,South,20.7,31.1,N/A,,Clear,190,2013-05-28 15:57:00
11:57 AM,75.0,62.1,64,29.86,10.0,South,21.9,27.6,N/A,,Clear,170,2013-05-28 16:57:00
12:57 PM,77.0,64.0,64,29.84,10.0,SSE,16.1,19.6,N/A,,Clear,160,2013-05-28 17:57:00
1:57 PM,82.9,63.0,51,29.83,10.0,South,24.2,32.2,N/A,,Clear,180,2013-05-28 18:57:00
2:57 PM,82.9,63.0,51,29.83,10.0,South,27.6,33.4,N/A,,Clear,180,2013-05-28 19:57:00
3:57 PM,82.0,63.0,52,29.82,10.0,South,27.6,35.7,N/A,,Clear,180,2013-05-28 20:57:00
4:57 PM,82.0,64.0,54,-9999,10.0,South,17.3,25.3,N/A,,Clear,170,2013-05-28 21:57:00
5:57 PM,81.0,64.0,56,29.80,10.0,SSE,23.0,31.1,N/A,,Clear,160,2013-05-28 22:57:00
6:57 PM,79.0,63.0,58,29.81,10.0,SSE,16.1,26.5,N/A,,Clear,160,2013-05-28 23:57:00
7:57 PM,77.0,62.1,60,29.80,10.0,SSE,16.1,24.2,N/A,,Clear,160,2013-05-29 00:57:00
8:57 PM,75.9,62.1,62,29.80,10.0,SSE,15.0,-,N/A,,Clear,160,2013-05-29 01:57:00
9:57 PM,73.9,62.1,66,29.84,10.0,South,10.4,-,N/A,,Clear,170,2013-05-29 02:57:00
10:57 PM,73.0,62.1,68,29.88,10.0,South,8.1,-,N/A,,Clear,170,2013-05-29 03:57:00
11:57 PM,73.0,63.0,71,29.86,10.0,SE,10.4,-,N/A,,Clear,140,2013-05-29 04:57:00